#timestamp,LO_Frequency,Hit,StdDev 
1571612415.5,286047000.8,N
1571612435.3,286046998.9,N
1571612455.1,286047001.2,N
1571612475.9,286046998.9,N
1571612495.7,286046999.2,N
1571612515.5,286046999.4,N
1571612535.4,286047002.3,N
1571612555.2,286046999.5,N
1571612575.1,286046997.3,N
1571612576.0,286046997.3,N
1571612595.8,286046998.4,N
1571612615.6,286047000.8,N
1571612635.5,286047000.3,N
1571612655.3,286047002.7,N
1571612675.2,286046998.3,N
1571612695.9,286046998.3,N
1571612715.7,286046999.3,N
1571612735.6,286046997.5,N
1571612755.4,286046999.0,N
1571612775.2,286047001.1,N
1571612795.1,286046999.1,N
1571612796.0,286046999.1,N
1571612815.8,286047002.7,N
1571612835.7,286046999.5,N
1571612855.5,286046997.0,N
1571612875.3,286046999.5,N
1571612895.2,286046997.5,N
1571612915.9,286046997.8,N
1571612935.7,286046999.1,N
1571612955.6,286046999.3,N
1571612975.4,286046996.5,N
1571612995.3,286046997.2,N
1571613015.1,286046996.9,N
1571613016.0,286046996.9,N
1571613035.8,286046999.6,N
1571613055.7,286046996.8,N
1571613075.5,286046995.2,N
1571613095.3,286046996.0,N
1571613115.2,286046995.6,N
1571613135.0,286046995.6,N
1571613135.9,286046995.6,N
1571613155.8,286046997.0,N
1571613175.6,286046995.2,N
1571613195.4,286046997.5,N
1571613215.3,286046997.4,N
1571613235.1,286046997.1,N
1571613255.8,286046995.3,N
1571613275.7,286046995.6,N
1571613295.5,286046996.0,N
1571613315.4,286046992.7,Y
1571613335.2,286046993.4,P
1571613355.0,286046995.9,N
1571613355.9,286046995.9,N
1571613375.8,286046996.3,N
1571613395.6,286046997.6,N
1571613415.4,286046996.2,N
1571613435.3,286046996.3,N
1571613455.1,286046995.7,Y
1571613475.9,286047000.2,P
1571613495.7,286047001.3,N
1571613515.5,286047002.0,N
1571613535.4,286047002.4,N
1571613555.2,286047001.3,N
1571613575.0,286047001.7,N
1571613575.9,286047001.7,N
1571613595.8,286047004.4,N
1571613615.6,286047002.8,N
1571613635.5,286047002.8,N
1571613655.3,286047002.4,N
1571613675.1,286047001.6,N
1571613695.9,286047000.3,N
1571613715.7,286047000.2,N
1571613735.5,286047003.6,N
1571613755.4,286047002.7,N
1571613775.2,286047002.2,N
1571613795.1,286046999.7,N
1571613796.0,286046999.7,N
1571613815.8,286047001.7,N
1571613835.6,286047002.8,N
1571613855.5,286047005.6,Y
1571613875.3,286047003.1,P
1571613895.2,286046999.8,N
1571613915.9,286047002.2,N
1571613935.7,286047002.1,N
1571613955.6,286046999.8,N
1571613975.4,286047002.1,N
1571613995.2,286047002.6,N
1571614015.1,286047002.4,N
1571614016.0,286047002.4,N
1571614035.8,286047004.0,Y
1571614055.7,286047005.7,P
1571614075.5,286047003.0,N
1571614095.3,286047004.4,N
1571614115.2,286047001.7,N
1571614135.0,286047003.1,N
1571614135.9,286047003.1,N
1571614155.7,286047002.3,N
1571614175.6,286047002.7,N
1571614195.4,286047001.7,N
1571614215.3,286047001.7,N
1571614235.1,286047004.2,Y
1571614236.0,286047004.2,P
1571614255.8,286046998.9,N
1571614275.7,286046997.2,N
1571614295.5,286046997.8,N
1571614315.3,286046995.4,N
1571614335.2,286046995.4,N
1571614355.0,286046995.0,N
1571614355.9,286046995.0,N
1571614375.8,286046994.6,N
1571614395.6,286046994.1,N
1571614415.4,286046991.9,N
1571614435.3,286046992.1,N
1571614455.1,286046993.3,N
1571614475.8,286046994.1,N
1571614495.7,286046995.7,N
1571614515.5,286046995.4,N
1571614535.4,286046995.5,N
1571614555.2,286046997.0,N
1571614575.0,286046997.3,N
1571614575.9,286046997.3,N
1571614595.8,286046997.0,N
1571614615.6,286046997.7,N
1571614635.4,286046998.0,N
1571614655.3,286046996.8,N
1571614675.1,286046999.1,N
1571614695.9,286047001.0,N
1571614715.7,286046996.9,N
1571614735.5,286046998.0,N
1571614755.4,286046996.1,N
1571614775.2,286046995.0,N
1571614795.0,286046997.6,N
1571614795.9,286046997.6,N
1571614815.8,286046997.2,N
1571614835.6,286046996.1,N
1571614855.5,286046993.6,Y
1571614875.3,286046999.8,P
1571614895.1,286047000.4,N
1571614915.9,286047000.2,N
1571614935.7,286046996.6,N
1571614955.5,286046997.3,N
1571614975.4,286046999.5,N
1571614995.2,286046998.3,N
1571615015.1,286046996.8,N
1571615016.0,286046996.8,N
1571615035.8,286047001.2,N
1571615055.6,286046997.4,N
1571615075.5,286046999.5,N
1571615095.3,286046999.4,N
1571615115.1,286046999.2,N
1571615135.9,286046997.5,N
1571615155.7,286046997.4,N
1571615175.6,286046999.2,N
1571615195.4,286046996.6,N
1571615215.2,286046998.0,N
1571615235.1,286046995.9,N
1571615236.0,286046995.9,N
1571615255.8,286046998.0,N
1571615275.6,286046995.3,Y
1571615295.5,286046996.6,P
1571615315.3,286046998.9,N
1571615335.2,286046999.3,N
1571615355.9,286046996.7,Y
1571615375.7,286047000.4,P
1571615395.6,286047001.0,N
1571615415.4,286046999.7,N
1571615435.2,286046999.9,N
1571615455.1,286047002.2,N
1571615456.0,286047002.2,N
1571615475.8,286046999.8,N
1571615495.7,286046999.0,N
1571615515.5,286046998.5,N
1571615535.3,286046998.7,N
1571615555.2,286046998.5,N
1571615575.0,286046998.2,N
1571615575.9,286046998.2,N
1571615595.8,286046998.5,N
1571615615.6,286047002.3,N
1571615635.4,286047004.2,N
1571615655.3,286047005.5,Y
1571615675.1,286047007.3,P
1571615695.8,286047009.0,N
1571615715.7,286047010.6,N
1571615735.5,286047009.9,N
1571615755.4,286047010.5,N
1571615775.2,286047012.4,Y
1571615795.0,286047001.8,P
1571615795.9,286047001.8,N
1571615815.8,286046998.1,N
1571615835.6,286046997.2,N
1571615855.5,286046997.6,N
1571615875.3,286046995.0,N
1571615895.1,286046995.0,N
1571615915.9,286046995.0,N
1571615935.7,286046996.6,N
1571615955.5,286046999.3,N
1571615975.4,286046999.2,N
1571615995.2,286046999.1,N
